Starlink 2171

operational
NORAD ID: 47754 Int'l Des: 2021-017 Owner: SPXS Country: US Constellation: starlink
LEOCIRCULARSTARLINK_TYPE

Über Starlink 2171

Beschreibung wird geladen...

Live-Position

3D-Globus wird geladen...

Nächste Überflüge

Höhenverlauf

Altitude vs Time

uPlot chart will show altitude changes over time

Zweizeiliger Elementsatz

1 47754U 21017AJ 25308.66670139 .00151839 00000-0 39732-2 0 9997
2 47754 53.0554 51.1430 0001487 69.7238 100.1495 15.37687166 5803
Epoch: 4. Nov. 2025 • Age: 3 hours

Aktueller Status

Höhe 453.0 km
Geschwindigkeit 7.64 km/s
Subsatellitenpunkt 15.20°N, 111.69°W
Startdatum 4. März 2021
Alter 4.6 years
Typ internet

Technische Details

Klassifizierung Payload
Masse 260.00 kg
Trockenmasse 248.00 kg
Gesamtmasse 260.00 kg
Länge 0.20 m
Durchmesser 2.80 m
Spannweite 9.00 m
Form Box + pan
Hersteller SPXS
Bus-Typ Starlink
Phasenstatus In Orbit
Besitzer/Staat SPXS/US

Große Konstellationen

Loading constellations...